COSMOS 2251 DEB, 35716

Orbit data source: Space-Track

COSMOS 2251 DEB, 35716 is space debris in LEO originally from a launch on Wed, 16 Jun 1993 UTC launched from the Plesetsk Missile And Space Complex (PKMTR). The debris from Iridium 33, an American commercial communications satellite, has been tracked extensively since its accidental collision with the defunct Russian satellite Cosmos 2251 in 2009. This event, occurring at high speed in low Earth orbit (LEO), generated thousands of pieces of space debris, significantly increasing the risk of further collisions. The Iridium 33 debris cloud has impacted space traffic management and orbital debris mitigation strategies, making it a subject of ongoing study in space situational awareness.

Loading next visibility...
Identifier
35716, 1993-036AQM
Orbit
LEO
Country
Flag of CISCIS
Related business
Manufacturer
Unknown
Mission
Spacecraft
Bus & Motor
Unknown
Mass
Unknown
Launch date (UTC)
1993-06-16 (33 years ago)
Launch vehicle
Unknown
Launch site
Plesetsk Missile And Space Complex (PKMTR)
Object type
Payload
Rocket body
Debris
Shape & HBR
Unknown shape, 0.050 m
Radar Cross Section
Small (<0.1 m²)

Expand to show TLE details & history
Last TLE update: 2 days ago

TLE from 2 days ago
0 COSMOS 2251 DEB
1 35716U 93036AQM 26265.56122388  .00000360  00000-0  76851-4 0  9999
2 35716  73.9961  10.9282 0088345 144.4135 227.3392 14.60391112917701
Epoch: 2026-09-22T13:28Z
TLE epoch observation values (Epoch: 2026-09-22T13:28:09.743Z)
Latitude
10.53565°
Longitude
170.50412°
Altitude
736.427 km
Speed
7.465 km/s
True Right ascension
00h 55m 52s
True Declination
10° 28' 26"
Sunlit
Object was in full shadow at epoch
Visualization orbit readout
Latitude
Unknown
Longitude
Unknown
Altitude
Unknown
Speed
Unknown
Apparent Right ascension
Unknown
Apparent Declination
Unknown
Sunlit
N/A
Visualization observer readout
Local Sidereal Time
03:38:32
Azimuth
Unknown
Elevation
Unknown
Doppler factor
Unknown
Orbital elements
Apogee altitude
751.951 km
Perigee altitude
627.073 km
Semi-major axis
7,067.649 km
Eccentricity
0.00883
Inclination
73.9961°
RAAN
10.9282°
Arg. of periapsis
144.4135°
True anomaly
226.60028°
Mean anomaly
227.3392°
Eccentric anomaly
226.96919°
Mean motion
3.65284 °/min
Orbital period
98.55 mins
BSTAR
0.000076851

Documentation

Showing up to 5 results
|